Wind_Speed
30 31 31 32 33 34 35 35 35 34 33 33 32 30 29 28 27 27 26 26 25 24 24 24 25 27 29 30 29 29 29 29 29 28 28 29 28 28 28 29 29 30 30
28 30 31 31 33 34 35 36 36 35 34 34 33 32 30 29 27 26 27 27 26 26 26 27 27 28 30 32 31 30 29 29 29 29 28 29 30 29 29 31 32 32 33
27 28 30 31 33 34 35 37 36 35 34 33 32 32 31 30 29 28 29 29 28 28 27 27 27 28 29 30 31 31 31 31 31 31 30 30 30 31 31 32 33 35 35
26 28 29 31 32 33 34 35 35 34 34 33 33 33 32 31 30 29 29 28 28 28 28 28 28 28 29 30 31 31 31 32 33 32 32 32 32 33 33 34 35 36 36
25 26 28 29 31 31 32 34 34 33 33 32 33 32 32 32 31 30 29 29 28 29 28 29 30 29 29 31 31 31 32 32 32 32 33 34 35 35 35 35 36 36 37
24 24 25 26 28 28 30 31 31 31 32 32 33 33 32 31 31 30 30 28 29 29 28 29 29 29 29 30 31 32 33 33 33 33 33 34 34 34 35 35 35 35 36
22 22 24 24 26 27 27 28 30 31 31 32 33 33 33 32 31 31 30 29 29 29 29 29 30 29 30 31 32 33 34 34 35 35 34 33 32 33 34 35 36 37 38
22 22 24 24 25 27 28 29 29 31 31 32 32 32 32 32 30 30 30 30 30 30 29 29 29 29 30 31 32 33 33 34 34 34 34 34 34 34 35 36 37 38 40
23 23 23 24 25 26 27 28 29 30 31 31 32 32 31 31 30 29 29 29 29 28 28 28 28 29 30 31 31 31 31 32 32 33 34 33 33 34 35 36 38 39 41
23 23 24 25 25 26 27 28 29 30 31 31 31 31 31 30 30 29 28 28 27 27 28 29 29 30 31 31 31 31 31 31 32 33 33 33 33 34 36 36 37 39 41
22 23 24 25 25 26 26 28 29 29 30 30 30 30 30 29 29 29 28 28 28 28 28 28 28 30 30 30 31 31 31 32 32 32 33 34 35 36 37 37 37 38 40
22 23 24 24 25 25 26 26 27 28 28 28 29 29 29 29 29 29 29 29 29 29 28 28 28 29 29 30 30 31 31 31 31 32 33 35 36 36 37 37 37 38 39
21 21 21 23 24 25 25 25 25 26 26 26 27 27 27 27 27 28 28 28 28 28 27 27 27 27 28 28 29 30 31 32 32 33 33 34 34 34 35 35 36 37 37
21 20 19 20 21 22 23 23 24 25 26 26 26 26 26 26 26 26 26 26 27 27 27 26 27 27 28 28 28 29 30 31 31 31 32 32 33 33 33 34 35 36 36
21 20 20 20 20 20 20 22 23 23 22 23 24 24 24 24 25 24 24 25 26 26 25 25 26 26 27 27 27 28 28 28 30 30 31 31 31 32 32 33 34 34 34
20 20 19 19 19 19 19 20 20 21 20 19 19 20 22 22 22 23 23 23 23 23 23 24 25 26 26 26 27 27 28 29 29 30 30 31 30 31 31 31 32 32 32
18 17 17 17 17 17 17 18 19 19 19 18 18 19 19 20 20 21 22 23 23 23 23 23 24 24 25 25 26 26 26 26 27 27 27 27 28 28 29 29 29 29 29
17 17 17 17 17 17 17 18 18 18 17 17 18 18 19 19 20 20 21 21 21 21 21 22 22 23 23 23 23 24 24 25 25 26 26 26 26 27 27 28 28 28 27
17 17 17 17 17 17 17 16 15 15 15 15 15 15 16 16 17 18 19 20 20 20 20 20 20 20 21 22 22 23 23 24 24 25 24 25 25 25 26 26 25 25 24
16 15 14 14 14 14 13 13 13 13 13 14 13 13 13 14 14 15 16 17 17 18 18 18 19 19 20 20 20 21 21 22 22 23 23 23 24 24 24 24 23 23 22
15 14 13 12 12 12 12 12 11 11 11 11 11 12 12 12 13 13 14 14 14 15 16 16 17 18 18 19 19 19 19 20 20 21 21 22 22 21 21 21 20 20 20
12 11 11 10 10 11 11 11 11 10 10 10 10 10 11 11 11 12 12 13 13 14 14 15 15 16 17 17 18 18 18 19 19 18 18 18 18 18 18 17 17 17 17
10 10 9 8 8 8 9 9 9 9 9 9 9 10 10 10 10 11 11 12 12 13 13 14 14 15 15 16 16 16 16 16 16 16 16 16 16 16 16 15 15 15 15
9 9 8 7 6 6 6 6 7 7 7 8 8 8 9 9 9 9 9 10 10 10 11 11 12 12 13 13 13 13 13 13 13 13 13 14 14 14 14 14 14 14 14
8 8 7 6 6 6 6 5 5 5 6 6 7 7 7 7 7 7 7 8 8 9 9 9 9 9 9 10 10 10 10 10 11 11 11 12 12 12 13 13 13 13 13
8 8 7 6 6 6 5 5 5 5 5 5 5 5 5 5 5 6 6 7 7 7 7 7 7 8 8 8 9 9 9 9 9 10 10 11 11 11 11 11 12 12 11
Wind_Direction
257 255 253 252 252 252 252 253 254 255 256 260 263 266 266 268 270 272 274 271 269 265 264 261 260 256 254 252 252 253 254 255 255 257 259 258 258 261 265 268 271 274 275
259 258 257 254 253 253 253 253 254 255 257 258 262 267 267 271 272 270 271 271 268 269 269 267 261 255 253 252 253 255 256 257 256 257 258 259 259 262 264 268 271 274 276
258 256 257 256 255 254 253 253 254 256 258 259 262 264 268 271 272 270 270 270 269 270 269 266 261 257 255 254 255 257 255 254 255 257 259 260 261 265 267 270 273 274 276
260 258 257 256 256 256 255 253 253 255 257 259 261 265 269 271 273 273 274 272 270 272 268 264 262 257 254 255 255 256 254 253 256 258 259 259 262 266 268 270 272 275 276
266 262 260 258 255 255 256 254 254 254 256 258 258 262 266 270 272 273 274 273 271 272 267 263 261 258 256 254 253 253 254 256 257 257 259 262 264 265 268 269 271 273 275
268 264 261 259 256 254 253 252 253 253 255 257 259 262 264 268 268 270 272 271 270 271 267 263 262 259 257 256 255 257 258 258 258 259 262 263 265 267 269 271 272 273 275
271 267 264 261 257 254 255 254 254 254 255 258 260 263 265 266 267 268 270 269 268 268 265 263 261 259 258 258 258 258 260 260 260 261 261 261 264 267 269 272 273 276 278
274 271 267 262 259 257 256 255 255 255 257 259 260 262 264 265 266 268 269 268 267 267 266 265 263 262 260 260 260 260 261 262 260 260 261 262 266 269 272 275 277 279 280
278 274 268 264 262 260 259 257 256 258 260 260 260 261 262 264 266 267 267 267 267 265 265 265 264 261 260 262 264 261 260 261 260 261 263 266 269 274 277 278 280 281 283
277 273 269 266 263 262 260 260 259 260 261 261 261 262 263 264 265 265 266 266 266 267 270 265 263 263 261 262 263 261 262 263 262 264 267 270 274 277 278 280 282 282 284
278 272 270 269 266 265 263 260 262 262 262 262 263 264 265 266 265 266 266 266 266 267 269 266 266 265 263 264 264 264 263 264 265 268 271 274 277 279 280 281 282 284 286
281 276 273 270 268 266 264 262 264 264 263 263 264 265 266 266 265 264 267 266 266 267 266 266 266 265 266 265 265 265 266 269 270 272 274 277 278 280 281 283 285 287 288
285 282 277 271 269 267 264 264 265 264 264 265 263 263 265 265 264 264 265 267 268 268 267 267 267 268 270 269 268 267 268 269 272 274 276 277 279 282 283 285 287 288 289
290 286 281 277 274 271 269 268 268 267 267 267 266 265 264 263 263 263 264 266 266 266 268 267 267 269 270 270 268 268 270 271 274 276 277 278 282 284 285 286 287 288 289
291 287 284 280 277 276 274 273 271 271 269 268 266 264 262 263 262 262 263 266 267 265 264 266 267 269 270 269 269 271 272 274 276 278 280 283 284 285 286 286 288 289 290
294 288 284 280 278 275 274 273 273 274 271 268 266 267 266 265 264 265 266 267 268 267 269 269 271 274 275 275 276 277 278 279 279 280 282 283 284 285 286 287 288 289 291
297 293 288 285 282 279 277 275 275 273 273 273 273 274 272 268 267 267 268 269 270 271 271 274 276 277 277 277 278 279 280 280 281 282 282 283 284 286 287 289 290 291 292
298 294 291 289 285 283 281 278 276 275 278 278 277 276 274 270 268 268 269 270 271 275 278 280 279 278 278 279 279 279 280 280 281 282 283 284 285 287 288 289 290 292 293
300 295 290 287 286 286 285 282 282 281 281 282 282 278 277 273 273 274 274 275 276 278 279 279 279 280 281 281 280 280 280 281 282 283 284 286 287 288 290 291 292 292 293
302 300 294 290 289 290 288 286 286 285 285 283 282 281 279 279 279 280 280 280 279 281 283 284 283 283 283 282 282 282 283 283 284 285 286 287 289 291 292 293 293 292 292
306 303 298 295 292 292 292 289 288 287 286 282 280 282 281 282 283 283 283 282 282 282 282 282 284 285 285 286 286 286 286 287 287 288 289 290 292 292 293 293 293 293 293
311 306 303 300 297 295 293 291 290 288 287 287 284 284 285 285 286 284 283 283 284 284 284 284 285 287 288 288 288 289 289 290 290 291 292 293 294 295 295 295 296 295 295
319 316 313 308 304 302 300 298 294 291 290 289 289 287 292 291 289 286 286 287 286 286 287 288 288 290 291 292 294 293 293 293 294 295 296 298 298 298 297 297 297 297 298
332 327 323 319 318 317 316 310 298 288 287 290 291 294 296 295 294 293 295 294 292 291 293 293 294 296 296 296 298 298 299 300 300 300 301 302 301 300 300 300 300 300 302
344 343 339 341 337 331 324 316 312 308 302 299 299 299 301 301 301 301 302 304 304 304 303 303 303 305 305 304 304 304 304 305 305 305 306 308 308 306 304 304 304 304 305
354 356 356 358 355 349 348 346 340 334 328 318 311 309 309 311 315 316 317 317 319 321 321 320 320 320 318 316 315 314 312 312 311 312 314 315 315 314 313 311 309 307 306
Height
5802 5803 5804 5805 5807 5808 5809 5810 5810 5812 5813 5815 5816 5816 5816 5817 5818 5819 5820 5822 5822 5822 5824 5825 5826 5828 5830 5832 5834 5835 5837 5838 5840 5841 5842 5843 5844 5845 5845 5845 5845 5845 5845
5795 5796 5798 5799 5800 5801 5802 5803 5804 5805 5807 5808 5810 5811 5811 5811 5812 5814 5815 5816 5817 5817 5818 5819 5820 5822 5824 5825 5827 5829 5831 5832 5833 5835 5836 5837 5838 5838 5839 5839 5839 5839 5839
5790 5790 5791 5792 5793 5794 5796 5797 5798 5799 5800 5802 5803 5804 5805 5806 5807 5808 5810 5811 5811 5812 5812 5813 5814 5815 5817 5819 5821 5823 5824 5826 5828 5829 5830 5831 5832 5832 5832 5832 5832 5832 5832
5784 5784 5785 5786 5786 5787 5788 5790 5791 5793 5794 5796 5797 5798 5799 5800 5800 5801 5802 5803 5804 5805 5806 5808 5808 5810 5811 5813 5815 5816 5817 5819 5821 5822 5823 5824 5825 5825 5825 5826 5825 5825 5824
5777 5777 5778 5779 5780 5781 5782 5783 5785 5786 5788 5790 5791 5793 5793 5794 5795 5795 5796 5797 5798 5799 5800 5801 5802 5803 5804 5806 5807 5809 5811 5812 5813 5814 5816 5816 5817 5817 5817 5817 5818 5817 5817
5772 5772 5772 5773 5773 5774 5775 5777 5778 5780 5782 5783 5785 5787 5787 5788 5789 5789 5790 5790 5791 5792 5793 5794 5795 5796 5797 5799 5800 5802 5803 5805 5806 5807 5808 5809 5809 5809 5809 5809 5809 5809 5808
5767 5767 5767 5768 5768 5769 5769 5771 5772 5774 5776 5777 5779 5780 5781 5782 5782 5783 5783 5784 5785 5786 5786 5787 5788 5789 5791 5792 5794 5795 5796 5797 5799 5800 5801 5802 5802 5802 5801 5801 5800 5800 5799
5763 5763 5763 5763 5763 5763 5764 5765 5767 5768 5770 5771 5772 5773 5774 5775 5776 5776 5777 5777 5778 5779 5779 5780 5781 5782 5784 5785 5786 5787 5788 5789 5791 5792 5793 5794 5794 5794 5793 5793 5792 5791 5790
5759 5758 5758 5758 5758 5758 5759 5759 5761 5762 5763 5764 5765 5766 5767 5768 5769 5769 5770 5771 5771 5772 5772 5773 5774 5775 5776 5778 5779 5780 5781 5782 5783 5784 5785 5786 5786 5786 5785 5785 5783 5782 5780
5753 5753 5753 5753 5753 5753 5753 5754 5754 5756 5756 5757 5758 5759 5760 5761 5762 5763 5764 5764 5765 5765 5766 5767 5767 5768 5769 5770 5772 5773 5774 5775 5776 5776 5777 5778 5778 5778 5777 5776 5775 5773 5771
5748 5748 5748 5747 5747 5747 5747 5747 5748 5749 5750 5750 5751 5752 5753 5754 5755 5756 5757 5757 5758 5759 5759 5760 5761 5761 5762 5763 5764 5766 5767 5767 5768 5768 5769 5769 5769 5769 5768 5767 5766 5764 5762
5744 5743 5743 5742 5742 5742 5742 5742 5742 5743 5743 5744 5745 5746 5746 5747 5748 5749 5750 5750 5751 5752 5753 5753 5754 5754 5755 5756 5757 5758 5759 5759 5760 5761 5761 5761 5760 5760 5759 5758 5756 5755 5752
5739 5739 5738 5737 5736 5736 5736 5736 5737 5737 5737 5738 5739 5739 5740 5741 5741 5742 5743 5744 5744 5745 5745 5746 5747 5747 5748 5749 5750 5750 5751 5752 5752 5753 5753 5752 5752 5751 5750 5749 5748 5746 5743
5735 5734 5733 5732 5731 5731 5731 5731 5731 5731 5732 5732 5732 5733 5734 5734 5735 5736 5736 5737 5738 5738 5739 5739 5740 5741 5741 5742 5743 5743 5744 5744 5744 5745 5744 5744 5743 5743 5742 5740 5739 5736 5734
5731 5729 5728 5727 5726 5726 5726 5726 5726 5726 5725 5725 5726 5726 5727 5728 5729 5729 5730 5731 5731 5731 5732 5732 5733 5734 5735 5735 5736 5736 5736 5736 5737 5737 5736 5736 5735 5734 5733 5731 5729 5727 5725
5726 5724 5723 5722 5721 5721 5721 5721 5721 5720 5720 5720 5720 5721 5721 5722 5723 5723 5724 5724 5725 5725 5726 5726 5727 5728 5728 5728 5728 5729 5729 5729 5729 5728 5728 5728 5727 5726 5724 5723 5721 5719 5717
5722 5720 5719 5718 5717 5716 5716 5716 5715 5715 5715 5715 5715 5716 5716 5717 5717 5718 5718 5719 5719 5719 5720 5720 5721 5721 5721 5721 5722 5722 5722 5722 5721 5721 5720 5720 5719 5717 5716 5714 5713 5711 5709
5718 5716 5715 5714 5713 5712 5711 5711 5710 5710 5710 5711 5711 5711 5711 5711 5712 5712 5713 5713 5713 5714 5714 5714 5715 5715 5715 5715 5715 5715 5715 5714 5714 5714 5713 5712 5710 5709 5708 5707 5705 5703 5701
5714 5712 5711 5710 5709 5708 5707 5706 5706 5706 5706 5706 5706 5707 5707 5707 5707 5707 5707 5708 5708 5708 5709 5709 5709 5709 5709 5709 5709 5708 5708 5708 5707 5706 5705 5704 5703 5702 5701 5699 5698 5696 5694
5710 5709 5707 5706 5705 5704 5703 5703 5702 5702 5702 5703 5703 5703 5703 5703 5703 5703 5703 5703 5703 5704 5704 5704 5704 5704 5703 5703 5703 5702 5702 5701 5700 5700 5699 5698 5697 5695 5694 5693 5691 5690 5688
5707 5706 5704 5703 5702 5701 5701 5700 5700 5700 5699 5699 5699 5699 5699 5699 5699 5699 5699 5699 5699 5700 5700 5699 5699 5699 5698 5698 5697 5697 5696 5695 5695 5694 5693 5692 5690 5689 5688 5687 5685 5684 5682
5705 5703 5702 5700 5700 5699 5698 5697 5697 5697 5697 5696 5696 5696 5696 5696 5696 5696 5695 5696 5696 5695 5695 5695 5695 5694 5694 5693 5692 5692 5691 5690 5689 5688 5687 5686 5685 5684 5682 5681 5680 5679 5678
5703 5701 5700 5699 5697 5697 5696 5695 5695 5694 5694 5694 5694 5693 5693 5693 5693 5693 5693 5692 5692 5692 5691 5691 5691 5690 5689 5689 5688 5687 5687 5686 5685 5684 5683 5682 5681 5679 5678 5677 5676 5675 5673
5702 5700 5699 5697 5696 5695 5694 5693 5693 5692 5692 5692 5691 5691 5691 5691 5690 5690 5690 5690 5689 5689 5688 5688 5687 5687 5686 5685 5684 5684 5683 5682 5681 5680 5679 5678 5677 5676 5674 5673 5672 5670 5669
5701 5700 5698 5697 5695 5694 5693 5692 5691 5691 5690 5690 5690 5689 5689 5689 5689 5688 5688 5687 5687 5687 5686 5685 5685 5684 5683 5682 5682 5681 5680 5679 5678 5678 5677 5675 5674 5672 5671 5670 5668 5667 5666
5701 5699 5698 5696 5695 5694 5693 5692 5691 5690 5690 5689 5688 5688 5688 5688 5687 5687 5687 5686 5686 5685 5684 5684 5683 5682 5681 5680 5680 5679 5678 5677 5676 5675 5674 5673 5671 5670 5668 5667 5665 5664 5662